Regional Weather Roundup
Issued by NWS

Home | Current Version | Previous Version | Text Only | Print | Product List | Glossary Off
Versions: 1 2 3 4 5 6 7 8 9 10 11 12 13 14 15 16 17 18 19 20 21 22 23 24 25 26 27 28 29 30 31 32 33 34 35 36 37 38 39 40 41 42 43 44 45 46 47 48 49 50

000
ASUS43 KTOP 271308
RWRKS

WEATHER ROUNDUP FOR KANSAS
NATIONAL WEATHER SERVICE GOODLAND KS
800 AM CDT THU APR 27 2017

NOTE:  "FAIR" INDICATES FEW OR NO CLOUDS BELOW 12,000 FEET WITH NO
SIGNIFICANT WEATHER AND/OR OBSTRUCTIONS TO VISIBILITY.

KSZ001>006-013>018-027>032-041>047-271400-
NORTHWEST KANSAS

CITY           SKY/WX    TMP DP  RH WIND       PRES   REMARKS
GOODLAND       CLOUDY    40  32  73 S10       29.59F WCI  33
HAYS           CLOUDY    35  32  88 SE5       29.72
HILL CITY      MOSUNNY   34  32  92 NE3       29.70S
RUSSELL        MOSUNNY   36  33  89 SE6       29.71R
$$

KSZ061>065-074>080-084>089-271400-
SOUTHWEST KANSAS

CITY           SKY/WX    TMP DP  RH WIND       PRES   REMARKS
DODGE CITY     PTSUNNY   44  37  76 SE5       29.67F
ELKHART          N/A     43  34  71 S8          N/A
GARDEN CITY    MOSUNNY   43  34  70 SE9       29.64F
GREAT BEND     SUNNY     37  35  92 SE6       29.73R
LIBERAL        SUNNY     44  38  79 S9        29.66R
PRATT          SUNNY     38  32  81 E5        29.74R
$$

KSZ066>073-081>083-090>101-271400-
SOUTHEAST KANSAS

CITY           SKY/WX    TMP DP  RH WIND       PRES   REMARKS
CHANUTE        SUNNY     43  38  82 NW3       29.76R
COFFEYVILLE    SUNNY     43  42  97 S5        29.79R
HUTCHINSON     SUNNY     39  35  86 CALM      29.76R
MEDICINE LODGE   N/A     42  38  85 E6        29.72S
NEWTON         SUNNY     40  35  83 E3        29.75R
PARSONS        SUNNY     42  41  96 CALM      29.78R
WICHITA INTL   MOSUNNY   40  38  93 CALM      29.78R
WICHITA JABRA  SUNNY     40  36  86 S3        29.77R
WICHITA MCCONL SUNNY     41  35  77 CALM      29.77R
WINFIELD       SUNNY     42  40  92 CALM      29.79R
$$

KSZ007>012-019>026-033>040-048>060-102>105-271400-
NORTHEAST KANSAS

CITY           SKY/WX    TMP DP  RH WIND       PRES   REMARKS
CONCORDIA      SUNNY     36  32  85 W6        29.74R
EMPORIA        SUNNY     39  36  89 NW5       29.75R
LAWRENCE       SUNNY     43  36  76 W6        29.75R
MANHATTAN      SUNNY     38  34  85 CALM      29.75R
MARYSVILLE     SUNNY     37  32  81 NW6       29.73R
OLATHE IND     SUNNY     43  34  70 W7        29.74R
OLATHE EXE     SUNNY     43  34  70 W7        29.73R
SALINA         SUNNY     38  33  82 S3        29.76R
TOPEKA BILLARD SUNNY     42  35  76 W5        29.74R
TOPEKA FORBES  SUNNY     42  35  76 W5        29.74R
$$




USA.gov is the U.S. government's official web portal to all federal, state and local government web resources and services.